Galesburg, IL

6:14 PM CDT on August 22, 2019 (GMT -0500)
Galesburg Municipal

Weather History for KGBG - May, 2019

Change the Weather History Date:

Sunday, May 5, 2019

  Actual Average Record
Temperature  
Mean Temperature 58 °F -  
Max Temperature 73 °F 70 °F 91 °F (1959)
Min Temperature 42 °F 48 °F 34 °F (1954)
Degree Days  
Heating Degree Days 8    
Growing Degree Days 8 (Base 50)    
Moisture  
Dew Point 48 °F    
Average Humidity 69    
Maximum Humidity 100    
Minimum Humidity 42    
Precipitation  
Precipitation 0.00 in - - ()
Sea Level Pressure  
Sea Level Pressure 29.90 in    
Wind  
Wind Speed 3 mph (SW)    
Max Wind Speed 13 mph    
Max Gust Speed 17 mph    
Visibility 10 miles    
Events      
Averages and records for this station are not official NWS values.
T = Trace of Precipitation, MM = Missing Value Source: NWS Daily Summary

Daily Weather History Graph

Daily Weather History Graph

Search for Another Location

Airport or City:

Astronomy

May. 05, 2019 Rise Set
Actual Time 5:55 AM CDT 8:02 PM CDT
Civil Twilight 5:24 AM CDT 8:32 PM CDT
Nautical Twilight 4:47 AM CDT 9:09 PM CDT
Astronomical Twilight 4:07 AM CDT 9:50 PM CDT
Moon 6:40 AM CDT (5/5) 8:55 PM CDT (5/5)
Length of Visible Light 15h 07m
Length of Day
14h 07m
New Moon, 1% of the Moon is Illuminated
May 5
New Moon
May 11
First Quarter
May 18
Full
May 26
Last Quarter
Jun 3
New

Hourly Weather History & Observations

Time (CDT) Temp. Windchill Dew Point Humidity Pressure Visibility Wind Dir Wind Speed Gust Speed Precip Events Conditions
12:15 AM 48.2 °F - 46.0 °F 92% 29.93 in 10.0 mi Calm Calm - N/A   Clear
12:35 AM 46.9 °F - 46.4 °F 98% 29.93 in 10.0 mi Calm Calm - N/A   Clear
12:55 AM 47.1 °F - 46.6 °F 98% 29.93 in 10.0 mi Calm Calm - N/A   Clear
1:15 AM 47.3 °F - 46.8 °F 98% 29.94 in 10.0 mi Calm Calm - N/A   Clear
1:35 AM 47.3 °F - 46.0 °F 95% 29.94 in 10.0 mi Calm Calm - N/A   Clear
1:55 AM 45.7 °F - 45.1 °F 98% 29.93 in 10.0 mi Calm Calm - N/A   Clear
2:15 AM 45.5 °F - 45.5 °F 100% 29.93 in 10.0 mi Calm Calm - N/A   Clear
2:35 AM 45.5 °F - 45.1 °F 99% 29.92 in 10.0 mi Calm Calm - N/A   Clear
2:55 AM 44.4 °F - 44.2 °F 99% 29.92 in 10.0 mi Calm Calm - N/A   Clear
3:15 AM 43.3 °F - 43.3 °F 100% 29.92 in 10.0 mi Calm Calm - N/A   Clear
3:35 AM 45.1 °F - 45.1 °F 100% 29.92 in 10.0 mi Calm Calm - N/A   Clear
3:55 AM 44.6 °F - 44.6 °F 100% 29.93 in 10.0 mi Calm Calm - N/A   Clear
4:15 AM 44.1 °F - 44.1 °F 100% 29.93 in 10.0 mi Calm Calm - N/A   Clear
4:35 AM 43.7 °F - 43.7 °F 100% 29.93 in - Calm Calm - N/A   Unknown
4:55 AM 42.6 °F - 42.6 °F 100% 29.92 in 7.0 mi Calm Calm - N/A   Clear
5:15 AM 43.7 °F 42.1 °F 43.7 °F 100% 29.92 in 7.0 mi WSW 3.5 mph - N/A   Clear
5:35 AM 42.4 °F - 42.4 °F 100% 29.92 in 5.0 mi Calm Calm - N/A   Clear
5:55 AM 42.8 °F - 42.8 °F 100% 29.92 in 5.0 mi Calm Calm - N/A   Clear
6:15 AM 43.0 °F - 43.0 °F 100% 29.92 in 7.0 mi Calm Calm - N/A   Clear
6:35 AM 43.5 °F - 43.5 °F 100% 29.92 in 7.0 mi Calm Calm - N/A   Clear
6:55 AM 45.1 °F - 45.1 °F 100% 29.93 in 10.0 mi Calm Calm - N/A   Clear
7:15 AM 47.8 °F - 47.8 °F 100% 29.93 in 10.0 mi Calm Calm - N/A   Clear
7:35 AM 51.4 °F - 48.0 °F 88% 29.94 in 10.0 mi Calm Calm - N/A   Clear
7:55 AM 54.7 °F - 49.1 °F 81% 29.94 in 10.0 mi SW 3.5 mph - N/A   Clear
8:15 AM 57.4 °F - 49.8 °F 76% 29.94 in 10.0 mi WSW 5.8 mph - N/A   Clear
8:35 AM 59.9 °F - 50.0 °F 70% 29.93 in 10.0 mi WSW 5.8 mph - N/A   Clear
8:55 AM 61.3 °F - 49.6 °F 65% 29.93 in 10.0 mi WSW 8.1 mph - N/A   Clear
9:15 AM 63.1 °F - 49.5 °F 61% 29.93 in 10.0 mi SW 8.1 mph - N/A   Clear
9:35 AM 63.3 °F - 48.2 °F 58% 29.93 in 10.0 mi SW 8.1 mph - N/A   Scattered Clouds
9:55 AM 63.5 °F - 48.7 °F 59% 29.93 in 10.0 mi WSW 6.9 mph - N/A   Mostly Cloudy
10:15 AM 65.8 °F - 49.6 °F 56% 29.92 in 10.0 mi WSW 9.2 mph - N/A   Scattered Clouds
10:35 AM 66.4 °F - 49.3 °F 54% 29.93 in 10.0 mi SW 5.8 mph - N/A   Scattered Clouds
10:55 AM 66.7 °F - 50.2 °F 55% 29.93 in 10.0 mi WSW 5.8 mph - N/A   Scattered Clouds
11:15 AM 67.3 °F - 49.1 °F 52% 29.93 in 10.0 mi WSW 3.5 mph - N/A   Scattered Clouds
11:35 AM 68.5 °F - 51.8 °F 55% 29.93 in 10.0 mi WSW 6.9 mph - N/A   Clear
11:55 AM 68.4 °F - 49.6 °F 51% 29.93 in 10.0 mi SW 6.9 mph - N/A   Clear
12:15 PM 69.1 °F - 48.9 °F 49% 29.93 in 10.0 mi WSW 8.1 mph - N/A   Clear
12:35 PM 70.0 °F - 50.9 °F 51% 29.92 in 10.0 mi WSW 8.1 mph - N/A   Clear
12:55 PM 70.2 °F - 50.4 °F 49% 29.92 in 10.0 mi SW 9.2 mph - N/A   Clear
1:15 PM 70.2 °F - 50.9 °F 50% 29.91 in 10.0 mi SW 6.9 mph - N/A   Clear
1:35 PM 70.7 °F - 50.0 °F 48% 29.90 in 10.0 mi WSW 6.9 mph - N/A   Clear
1:55 PM 72.1 °F - 49.5 °F 45% 29.90 in 10.0 mi SW 6.9 mph - N/A   Clear
2:15 PM 72.3 °F - 48.7 °F 43% 29.90 in 10.0 mi SW 6.9 mph - N/A   Clear
2:35 PM 72.5 °F - 49.1 °F 44% 29.89 in 10.0 mi West 5.8 mph - N/A   Clear
2:55 PM 72.7 °F - 50.7 °F 46% 29.87 in 10.0 mi WSW 11.5 mph - N/A   Clear
3:15 PM 73.0 °F - 50.9 °F 46% 29.86 in 10.0 mi SW 8.1 mph - N/A   Clear
3:35 PM 73.0 °F - 50.4 °F 45% 29.85 in 10.0 mi WSW 10.4 mph - N/A   Clear
3:55 PM 73.4 °F - 50.2 °F 44% 29.85 in 10.0 mi South 8.1 mph - N/A   Scattered Clouds
4:15 PM 72.0 °F - 50.0 °F 46% 29.84 in 10.0 mi WSW 9.2 mph - N/A   Clear
4:35 PM 73.4 °F - 50.7 °F 45% 29.85 in 10.0 mi WSW 10.4 mph 16.1 mph N/A   Clear
4:55 PM 73.4 °F - 50.5 °F 45% 29.85 in 10.0 mi WSW 9.2 mph - N/A   Clear
5:15 PM 73.0 °F - 48.4 °F 42% 29.85 in 10.0 mi SW 11.5 mph 17.3 mph N/A   Scattered Clouds
5:35 PM 73.0 °F - 48.7 °F 42% 29.85 in 10.0 mi WSW 12.7 mph 16.1 mph N/A   Clear
5:55 PM 72.5 °F - 48.7 °F 43% 29.85 in 10.0 mi SW 11.5 mph - N/A   Clear
6:15 PM 72.5 °F - 48.2 °F 42% 29.86 in 10.0 mi SW 8.1 mph - N/A   Clear
6:35 PM 71.8 °F - 47.8 °F 43% 29.86 in 10.0 mi SW 10.4 mph - N/A   Clear
6:55 PM 70.7 °F - 48.2 °F 45% 29.86 in 10.0 mi SW 10.4 mph - N/A   Clear
7:15 PM 70.2 °F - 49.3 °F 47% 29.86 in 10.0 mi SW 9.2 mph - N/A   Clear
7:35 PM 68.7 °F - 49.3 °F 50% 29.86 in 10.0 mi SW 6.9 mph - N/A   Clear
7:55 PM 67.3 °F - 49.3 °F 52% 29.87 in 10.0 mi SW 5.8 mph - N/A   Clear
8:15 PM 65.8 °F - 49.1 °F 55% 29.87 in 10.0 mi SW 4.6 mph - N/A   Clear
8:35 PM 64.2 °F - 49.1 °F 58% 29.87 in 10.0 mi SW 4.6 mph - N/A   Clear
8:55 PM 63.5 °F - 49.3 °F 60% 29.88 in 10.0 mi ESE 3.5 mph - N/A   Clear
9:15 PM 61.9 °F - 49.1 °F 63% 29.90 in 10.0 mi Calm Calm - N/A   Clear
9:35 PM 61.7 °F - 49.1 °F 63% 29.89 in 10.0 mi ESE 4.6 mph - N/A   Clear
9:55 PM 61.5 °F - 49.1 °F 64% 29.90 in 10.0 mi East 5.8 mph - N/A   Clear
10:15 PM 60.8 °F - 49.1 °F 65% 29.90 in 10.0 mi East 4.6 mph - N/A   Clear
10:35 PM 59.2 °F - 49.1 °F 69% 29.90 in 10.0 mi ESE 4.6 mph - N/A   Clear
10:55 PM 58.5 °F - 49.1 °F 71% 29.91 in 10.0 mi ESE 4.6 mph - N/A   Clear
11:15 PM 59.0 °F - 48.7 °F 69% 29.91 in 10.0 mi East 4.6 mph - N/A   Clear
11:35 PM 57.9 °F - 48.7 °F 71% 29.92 in 10.0 mi East 5.8 mph - N/A   Clear
11:55 PM 57.9 °F - 48.6 °F 71% 29.92 in 10.0 mi ESE 4.6 mph - N/A   Clear